When you browse on this site, cookies collect data to enhance your experience and personalize the content and advertising you see.
Visit our Privacy Policy to learn more. By continuing to use the site, you agree to this use of cookies and data.
  • In Czech Republic
  • List of Countries
  • For 7 days
  • Water Temperature
  • Weather Map
  • Weather Widgets
  • user-avatar
    Login

    Hourly Weather Cachungo

    Today, 20 September, Friday

    Time Temperature Precipitation Wind Pressure Humidity
    00:00 +26°C° 0.3 mm 1 mps 757 mmHg 92%
    01:00 +26°C° 0.3 mm 1 mps 756 mmHg 93%
    02:00 +26°C° 0.3 mm 1 mps 756 mmHg 93%
    03:00 +24°C° 0 mm 0 mps 756 mmHg 93%
    04:00 +24°C° 0 mm 0 mps 756 mmHg 93%
    05:00 +23°C° 0 mm 0 mps 756 mmHg 93%
    06:00 +25°C° 0 mm 0 mps 757 mmHg 90%
    07:00 +26°C° 0 mm 0 mps 757 mmHg 86%
    08:00 +27°C° 0 mm 0 mps 758 mmHg 83%
    09:00 +30°C° 0 mm 1 mps 758 mmHg 77%
    10:00 +31°C° 0 mm 1 mps 758 mmHg 71%
    11:00 +33°C° 0 mm 1 mps 758 mmHg 64%
    12:00 +34°C° 0 mm 2 mps 757 mmHg 64%
    13:00 +34°C° 0 mm 2 mps 756 mmHg 63%
    14:00 +34°C° 0 mm 3 mps 755 mmHg 63%
    15:00 +33°C° 0 mm 3 mps 755 mmHg 66%
    16:00 +31°C° 0 mm 3 mps 755 mmHg 69%
    17:00 +30°C° 0 mm 3 mps 755 mmHg 72%
    18:00 +29°C° 0 mm 2 mps 756 mmHg 76%
    19:00 +28°C° 0 mm 2 mps 756 mmHg 80%
    20:00 +27°C° 0 mm 2 mps 757 mmHg 84%
    21:00 +27°C° 0 mm 2 mps 757 mmHg 85%
    22:00 +27°C° 0 mm 2 mps 757 mmHg 86%
    23:00 +27°C° 0 mm 2 mps 757 mmHg 87%

    Tomorrow, 21 September, Saturday

    Time Temperature Precipitation Wind Pressure Humidity
    00:00 +27°C° 0.8 mm 1 mps 757 mmHg 89%
    01:00 +26°C° 0.8 mm 1 mps 757 mmHg 91%
    02:00 +26°C° 0.8 mm 1 mps 756 mmHg 93%
    03:00 +26°C° 2.8 mm 1 mps 757 mmHg 93%
    04:00 +26°C° 2.8 mm 2 mps 757 mmHg 93%
    05:00 +25°C° 2.8 mm 3 mps 757 mmHg 94%
    06:00 +26°C° 0.1 mm 3 mps 757 mmHg 91%
    07:00 +26°C° 0.1 mm 2 mps 757 mmHg 88%
    08:00 +27°C° 0.1 mm 2 mps 757 mmHg 85%
    09:00 +29°C° 0 mm 2 mps 757 mmHg 77%
    10:00 +31°C° 0 mm 2 mps 757 mmHg 69%
    11:00 +32°C° 0 mm 2 mps 757 mmHg 61%
    12:00 +34°C° 0 mm 3 mps 756 mmHg 61%
    13:00 +35°C° 0 mm 3 mps 756 mmHg 60%
    14:00 +36°C° 0 mm 4 mps 755 mmHg 60%
    15:00 +34°C° 2.1 mm 3 mps 755 mmHg 66%
    16:00 +33°C° 2.1 mm 3 mps 755 mmHg 73%
    17:00 +31°C° 2.1 mm 3 mps 754 mmHg 79%
    18:00 +30°C° 3.3 mm 3 mps 755 mmHg 83%
    19:00 +29°C° 3.3 mm 3 mps 756 mmHg 87%
    20:00 +27°C° 3.3 mm 3 mps 756 mmHg 90%
    21:00 +27°C° 0.7 mm 2 mps 756 mmHg 91%
    22:00 +27°C° 0.7 mm 2 mps 757 mmHg 92%
    23:00 +27°C° 0.7 mm 1 mps 757 mmHg 93%

    Day after tomorrow, 22 September, Sunday

    Time Temperature Precipitation Wind Pressure Humidity
    00:00 +27°C° 0.4 mm 1 mps 757 mmHg 93%
    01:00 +27°C° 0.4 mm 1 mps 756 mmHg 93%
    02:00 +27°C° 0.4 mm 2 mps 756 mmHg 93%
    03:00 +27°C° 0.9 mm 2 mps 756 mmHg 93%
    04:00 +26°C° 0.9 mm 2 mps 756 mmHg 93%
    05:00 +26°C° 0.9 mm 2 mps 756 mmHg 93%
    06:00 +27°C° 0 mm 3 mps 757 mmHg 89%
    07:00 +28°C° 0 mm 4 mps 757 mmHg 85%
    08:00 +28°C° 0 mm 4 mps 758 mmHg 82%
    09:00 +29°C° 0 mm 4 mps 758 mmHg 77%
    10:00 +30°C° 0 mm 4 mps 758 mmHg 73%
    11:00 +32°C° 0 mm 4 mps 758 mmHg 69%
    12:00 +32°C° 0.2 mm 4 mps 757 mmHg 70%
    13:00 +32°C° 0.2 mm 4 mps 757 mmHg 70%
    14:00 +32°C° 0.2 mm 4 mps 756 mmHg 71%
    15:00 +30°C° 0.3 mm 4 mps 756 mmHg 73%
    16:00 +30°C° 0.3 mm 4 mps 756 mmHg 75%
    17:00 +29°C° 0.3 mm 3 mps 756 mmHg 77%
    18:00 +29°C° 0 mm 3 mps 757 mmHg 80%
    19:00 +28°C° 0 mm 2 mps 757 mmHg 83%
    20:00 +27°C° 0 mm 2 mps 758 mmHg 86%
    21:00 +27°C° 0 mm 2 mps 758 mmHg 87%
    22:00 +27°C° 0 mm 2 mps 758 mmHg 88%
    23:00 +26°C° 0 mm 2 mps 758 mmHg 88%

    23 September, Monday

    Time Temperature Precipitation Wind Pressure Humidity
    00:00 +26°C° 0 mm 2 mps 758 mmHg 89%
    01:00 +26°C° 0 mm 1 mps 758 mmHg 89%
    02:00 +26°C° 0 mm 1 mps 757 mmHg 89%
    03:00 +27°C° 0 mm 1 mps 757 mmHg 89%
    04:00 +27°C° 0 mm 1 mps 757 mmHg 89%
    05:00 +27°C° 0 mm 1 mps 757 mmHg 89%
    06:00 +26°C° 0 mm 0 mps 758 mmHg 85%
    07:00 +27°C° 0 mm 0 mps 758 mmHg 81%
    08:00 +28°C° 0 mm 0 mps 758 mmHg 78%
    09:00 +30°C° 0.4 mm 1 mps 759 mmHg 75%
    10:00 +31°C° 0.4 mm 1 mps 759 mmHg 71%
    11:00 +32°C° 0.4 mm 1 mps 759 mmHg 68%
    12:00 +30°C° 3.1 mm 1 mps 758 mmHg 76%
    13:00 +29°C° 3.1 mm 1 mps 758 mmHg 83%
    14:00 +27°C° 3.1 mm 2 mps 757 mmHg 91%
    15:00 +27°C° 0.4 mm 2 mps 757 mmHg 90%
    16:00 +27°C° 0.4 mm 3 mps 757 mmHg 89%
    17:00 +27°C° 0.4 mm 3 mps 757 mmHg 88%
    18:00 +27°C° 0 mm 3 mps 757 mmHg 90%
    19:00 +27°C° 0 mm 2 mps 757 mmHg 92%
    20:00 +26°C° 0 mm 2 mps 757 mmHg 93%
    21:00 +26°C° 0 mm 2 mps 758 mmHg 94%
    22:00 +26°C° 0 mm 2 mps 758 mmHg 94%
    23:00 +26°C° 0 mm 2 mps 759 mmHg 95%

    24 September, Tuesday

    Time Temperature Precipitation Wind Pressure Humidity
    00:00 +26°C° 0 mm 1 mps 758 mmHg 95%
    01:00 +26°C° 0 mm 1 mps 758 mmHg 95%
    02:00 +26°C° 0 mm 1 mps 758 mmHg 94%
    03:00 +25°C° 0 mm 1 mps 758 mmHg 95%
    04:00 +25°C° 0 mm 1 mps 758 mmHg 95%
    05:00 +25°C° 0 mm 1 mps 758 mmHg 96%
    06:00 +26°C° 0 mm 1 mps 758 mmHg 91%
    07:00 +28°C° 0 mm 1 mps 759 mmHg 87%
    08:00 +29°C° 0 mm 1 mps 759 mmHg 83%
    09:00 +30°C° 0 mm 1 mps 759 mmHg 77%
    10:00 +31°C° 0 mm 1 mps 759 mmHg 71%
    11:00 +32°C° 0 mm 1 mps 759 mmHg 66%
    12:00 +32°C° 0.4 mm 2 mps 758 mmHg 67%
    13:00 +33°C° 0.4 mm 3 mps 757 mmHg 69%
    14:00 +33°C° 0.4 mm 3 mps 757 mmHg 70%
    15:00 +33°C° 0.1 mm 4 mps 756 mmHg 71%
    16:00 +32°C° 0.1 mm 4 mps 756 mmHg 72%
    17:00 +32°C° 0.1 mm 4 mps 756 mmHg 73%
    18:00 +30°C° 0 mm 3 mps 756 mmHg 78%
    19:00 +29°C° 0 mm 3 mps 756 mmHg 83%
    20:00 +27°C° 0 mm 3 mps 757 mmHg 87%
    21:00 +27°C° 0 mm 2 mps 757 mmHg 89%
    22:00 +26°C° 0 mm 2 mps 757 mmHg 91%
    23:00 +26°C° 0 mm 2 mps 757 mmHg 93%

    25 September, Wednesday

    Time Temperature Precipitation Wind Pressure Humidity
    00:00 +26°C° 0 mm 2 mps 757 mmHg 94%
    01:00 +25°C° 0 mm 2 mps 756 mmHg 95%
    02:00 +25°C° 0 mm 1 mps 756 mmHg 97%
    03:00 +25°C° 0 mm 1 mps 756 mmHg 96%
    04:00 +25°C° 0 mm 1 mps 756 mmHg 96%
    05:00 +25°C° 0 mm 1 mps 756 mmHg 96%
    06:00 +26°C° 0 mm 1 mps 757 mmHg 91%
    07:00 +27°C° 0 mm 1 mps 757 mmHg 85%
    08:00 +27°C° 0 mm 0 mps 757 mmHg 80%
    09:00 +30°C° 0 mm 1 mps 757 mmHg 73%
    10:00 +32°C° 0 mm 1 mps 757 mmHg 65%
    11:00 +34°C° 0 mm 2 mps 757 mmHg 58%
    12:00 +34°C° 0 mm 3 mps 756 mmHg 58%
    13:00 +34°C° 0 mm 3 mps 756 mmHg 59%
    14:00 +34°C° 0 mm 4 mps 755 mmHg 60%
    15:00 +33°C° 0 mm 4 mps 755 mmHg 64%
    16:00 +32°C° 0 mm 4 mps 755 mmHg 69%
    17:00 +30°C° 0 mm 4 mps 755 mmHg 73%
    18:00 +29°C° 0 mm 3 mps 755 mmHg 77%
    19:00 +28°C° 0 mm 3 mps 756 mmHg 81%
    20:00 +27°C° 0 mm 2 mps 756 mmHg 86%
    21:00 +27°C° 0 mm 2 mps 756 mmHg 86%
    22:00 +26°C° 0 mm 2 mps 757 mmHg 87%
    23:00 +26°C° 0 mm 1 mps 757 mmHg 88%
    Show more